Location: Moscow
(55.7500°N, 37.5830°E)
Time: 16:27:58
(UTC+03:00)

Transit 2A - Pass Details

Date: 02 December 2021
Orbit: 591 x 967 km, 66.7° (Epoch: 17 January)

Event Time Altitude Azimuth Distance (km) Brightness Sun altitude
Rises 02:49:53 0° 239° (WSW) 3,399 - -46.2°
Reaches altitude 10° 02:52:19 10° 244° (WSW) 2,518 - -45.9°
Maximum altitude 02:58:09 59° 324° (NW) 1,064 - -45.2°
Exits shadow 03:02:49 18° 39° (NE) 2,145 8.7 -44.7°
Drops below altitude 10° 03:04:25 10° 43° (NE) 2,699 9.4 -44.5°
Sets 03:07:06 0° 47° (NE) 3,662 10.3 -44.2°
